Time,TemperatureF,DewpointF,PressureIn,WindDirection,WindDirectionDegrees,WindSpeedMPH,WindSpeedGustMPH,Humidity,HourlyPrecipIn,Conditions,Clouds,dailyrainin,SoftwareType,DateUTC
2013-05-28 00:00:00,51.0,47.6,30.13,SSE,160,0.0,0.0,88,0.04,,,0.00,WeatherCatV1.15B25,2013-05-28 04:00:00,
2013-05-28 00:01:00,50.9,47.5,30.13,SSE,160,0.0,0.0,88,0.04,,,0.00,WeatherCatV1.15B25,2013-05-28 04:01:00,
2013-05-28 00:02:00,50.9,47.5,30.13,SSE,160,0.0,0.0,88,0.04,,,0.00,WeatherCatV1.15B25,2013-05-28 04:02:00,
2013-05-28 00:04:00,50.9,47.8,30.13,SSE,160,0.0,0.0,89,0.04,,,0.00,WeatherCatV1.15B25,2013-05-28 04:04:00,
2013-05-28 00:09:00,50.8,47.7,30.13,SSE,160,0.0,0.0,89,0.04,,,0.00,WeatherCatV1.15B25,2013-05-28 04:09:00,
2013-05-28 00:10:00,50.8,47.7,30.13,SSE,160,0.0,0.0,89,0.04,,,0.00,WeatherCatV1.15B25,2013-05-28 04:10:00,
2013-05-28 00:15:00,50.7,47.9,30.12,SSE,160,0.0,0.0,90,0.04,,,0.00,WeatherCatV1.15B25,2013-05-28 04:15:00,
2013-05-28 00:20:00,50.6,47.5,30.12,SSE,160,0.0,0.0,89,0.00,,,0.01,WeatherCatV1.15B25,2013-05-28 04:20:00,
2013-05-28 00:25:00,50.5,47.7,30.12,SSE,160,0.0,0.0,90,0.00,,,0.01,WeatherCatV1.15B25,2013-05-28 04:25:00,
2013-05-28 00:30:00,50.4,47.6,30.12,SSE,160,0.0,0.0,90,0.00,,,0.01,WeatherCatV1.15B25,2013-05-28 04:30:00,
2013-05-28 00:35:00,50.4,47.6,30.12,SSE,160,0.0,0.0,90,0.00,,,0.01,WeatherCatV1.15B25,2013-05-28 04:35:00,
2013-05-28 00:40:00,50.4,47.6,30.12,SSE,160,0.0,0.0,90,0.00,,,0.02,WeatherCatV1.15B25,2013-05-28 04:40:00,
2013-05-28 00:45:00,50.4,47.9,30.12,SSE,160,0.0,0.0,91,0.00,,,0.02,WeatherCatV1.15B25,2013-05-28 04:45:00,
2013-05-28 00:50:00,50.4,47.9,30.12,SSE,159,0.0,0.0,91,0.00,,,0.02,WeatherCatV1.15B25,2013-05-28 04:50:00,
2013-05-28 00:55:00,50.3,47.8,30.11,SSE,153,0.0,1.0,91,0.04,,,0.03,WeatherCatV1.15B25,2013-05-28 04:55:00,
2013-05-28 01:00:00,50.4,47.6,30.11,SE,146,0.0,0.0,90,0.04,,,0.03,WeatherCatV1.15B25,2013-05-28 05:00:00,
2013-05-28 01:05:00,50.4,47.6,30.11,SSE,160,0.0,0.0,90,0.04,,,0.03,WeatherCatV1.15B25,2013-05-28 05:05:00,
2013-05-28 01:10:00,50.5,47.7,30.11,SSE,159,0.0,0.0,90,0.00,,,0.03,WeatherCatV1.15B25,2013-05-28 05:10:00,
2013-05-28 01:15:00,50.5,47.7,30.11,SSE,159,0.0,0.0,90,0.00,,,0.03,WeatherCatV1.15B25,2013-05-28 05:15:00,
2013-05-28 01:20:00,50.4,47.6,30.11,SSE,159,0.0,0.0,90,0.00,,,0.03,WeatherCatV1.15B25,2013-05-28 05:20:00,
2013-05-28 01:25:00,50.4,47.6,30.12,SSE,159,0.0,0.0,90,0.00,,,0.04,WeatherCatV1.15B25,2013-05-28 05:25:00,
2013-05-28 01:30:00,50.5,48.0,30.12,SSW,212,0.0,1.0,91,0.00,,,0.04,WeatherCatV1.15B25,2013-05-28 05:30:00,
2013-05-28 01:35:00,50.6,48.1,30.11,ESE,119,0.0,1.0,91,0.00,,,0.04,WeatherCatV1.15B25,2013-05-28 05:35:00,
2013-05-28 01:40:00,50.5,48.0,30.11,ESE,119,0.0,0.0,91,0.00,,,0.04,WeatherCatV1.15B25,2013-05-28 05:40:00,
2013-05-28 01:45:00,50.4,47.9,30.10,ESE,119,0.0,0.0,91,0.00,,,0.04,WeatherCatV1.15B25,2013-05-28 05:45:00,
2013-05-28 01:50:00,50.4,47.9,30.10,ESE,119,0.0,0.0,91,0.00,,,0.04,WeatherCatV1.15B25,2013-05-28 05:50:00,
2013-05-28 01:55:00,50.4,47.9,30.09,ESE,119,0.0,0.0,91,0.00,,,0.04,WeatherCatV1.15B25,2013-05-28 05:55:00,
2013-05-28 02:00:00,50.3,47.8,30.09,SSE,148,0.0,0.0,91,0.00,,,0.05,WeatherCatV1.15B25,2013-05-28 06:00:00,
2013-05-28 02:05:00,50.4,47.9,30.08,SSE,150,0.0,0.0,91,0.00,,,0.05,WeatherCatV1.15B25,2013-05-28 06:05:00,
2013-05-28 02:10:00,50.3,47.8,30.08,SSE,155,0.0,0.0,91,0.00,,,0.05,WeatherCatV1.15B25,2013-05-28 06:10:00,
2013-05-28 02:15:00,50.3,47.8,30.08,SSE,160,3.0,3.0,91,0.00,,,0.05,WeatherCatV1.15B25,2013-05-28 06:15:00,
2013-05-28 02:20:00,50.4,47.9,30.07,SSE,157,2.0,3.0,91,0.00,,,0.05,WeatherCatV1.15B25,2013-05-28 06:20:00,
2013-05-28 02:25:00,50.6,48.1,30.07,SE,141,1.0,5.0,91,0.00,,,0.05,WeatherCatV1.15B25,2013-05-28 06:25:00,
2013-05-28 02:30:00,50.8,48.0,30.07,SSE,163,2.0,3.0,90,0.00,,,0.05,WeatherCatV1.15B25,2013-05-28 06:30:00,
2013-05-28 02:35:00,50.9,48.1,30.06,SSE,162,3.0,5.0,90,0.00,,,0.05,WeatherCatV1.15B25,2013-05-28 06:35:00,
2013-05-28 02:40:00,51.0,48.2,30.06,SE,143,1.0,6.0,90,0.00,,,0.05,WeatherCatV1.15B25,2013-05-28 06:40:00,
2013-05-28 02:45:00,51.1,48.3,30.06,SSE,162,3.0,4.0,90,0.00,,,0.05,WeatherCatV1.15B25,2013-05-28 06:45:00,
2013-05-28 02:50:00,51.2,48.4,30.06,SSE,153,2.0,4.0,90,0.00,,,0.06,WeatherCatV1.15B25,2013-05-28 06:50:00,
2013-05-28 02:55:00,51.2,48.4,30.06,SSE,157,1.0,2.0,90,0.00,,,0.06,WeatherCatV1.15B25,2013-05-28 06:55:00,
2013-05-28 03:00:00,51.2,48.4,30.06,SSE,151,0.0,1.0,90,0.00,,,0.06,WeatherCatV1.15B25,2013-05-28 07:00:00,
2013-05-28 03:05:00,51.1,48.3,30.06,SSE,152,1.0,2.0,90,0.05,,,0.07,WeatherCatV1.15B25,2013-05-28 07:05:00,
2013-05-28 03:10:00,51.1,48.3,30.06,SSW,204,1.0,2.0,90,0.10,,,0.08,WeatherCatV1.15B25,2013-05-28 07:10:00,
2013-05-28 03:15:00,51.2,48.7,30.08,NW,311,0.0,2.0,91,0.08,,,0.09,WeatherCatV1.15B25,2013-05-28 07:15:00,
2013-05-28 03:20:00,51.2,48.7,30.07,ESE,122,0.0,0.0,91,0.30,,,0.11,WeatherCatV1.15B25,2013-05-28 07:20:00,
2013-05-28 03:25:00,51.2,49.0,30.07,ESE,123,0.0,0.0,92,0.21,,,0.13,WeatherCatV1.15B25,2013-05-28 07:25:00,
2013-05-28 03:30:00,51.2,49.0,30.07,SSE,152,0.0,0.0,92,0.10,,,0.13,WeatherCatV1.15B25,2013-05-28 07:30:00,
2013-05-28 03:35:00,51.3,49.1,30.06,East,84,0.0,0.0,92,0.14,,,0.15,WeatherCatV1.15B25,2013-05-28 07:35:00,
2013-05-28 03:40:00,51.4,49.2,30.05,East,99,0.0,2.0,92,0.10,,,0.15,WeatherCatV1.15B25,2013-05-28 07:40:00,
2013-05-28 03:45:00,51.3,49.1,30.05,ESE,113,0.0,2.0,92,0.06,,,0.16,WeatherCatV1.15B25,2013-05-28 07:45:00,
2013-05-28 03:50:00,51.2,49.0,30.05,SSE,150,1.0,1.0,92,0.06,,,0.16,WeatherCatV1.15B25,2013-05-28 07:50:00,
2013-05-28 03:55:00,51.1,48.9,30.04,SSE,155,0.0,2.0,92,0.06,,,0.16,WeatherCatV1.15B25,2013-05-28 07:55:00,
2013-05-28 04:00:00,51.2,49.2,30.04,SSE,153,2.0,3.0,93,0.05,,,0.17,WeatherCatV1.15B25,2013-05-28 08:00:00,
2013-05-28 04:05:00,51.4,49.4,30.04,SE,139,1.0,6.0,93,0.07,,,0.18,WeatherCatV1.15B25,2013-05-28 08:05:00,
2013-05-28 04:10:00,51.5,49.5,30.03,SSE,150,1.0,4.0,93,0.20,,,0.19,WeatherCatV1.15B25,2013-05-28 08:10:00,
2013-05-28 04:15:00,51.6,49.6,30.03,SSE,160,3.0,3.0,93,0.17,,,0.21,WeatherCatV1.15B25,2013-05-28 08:15:00,
2013-05-28 04:20:00,51.7,49.7,30.03,SSE,158,1.0,2.0,93,0.09,,,0.21,WeatherCatV1.15B25,2013-05-28 08:20:00,
2013-05-28 04:25:00,51.8,49.8,30.03,South,169,2.0,4.0,93,0.07,,,0.22,WeatherCatV1.15B25,2013-05-28 08:25:00,
2013-05-28 04:30:00,51.9,49.9,30.03,SSE,163,2.0,3.0,93,0.11,,,0.23,WeatherCatV1.15B25,2013-05-28 08:30:00,
2013-05-28 04:35:00,51.9,49.6,30.03,SSE,156,1.0,2.0,92,0.09,,,0.24,WeatherCatV1.15B25,2013-05-28 08:35:00,
2013-05-28 04:40:00,51.8,49.5,30.02,SSE,148,1.0,3.0,92,0.11,,,0.25,WeatherCatV1.15B25,2013-05-28 08:40:00,
2013-05-28 04:45:00,51.7,49.7,30.02,SSE,152,2.0,3.0,93,0.16,,,0.26,WeatherCatV1.15B25,2013-05-28 08:45:00,
2013-05-28 04:50:00,51.7,49.7,30.02,SSE,162,3.0,4.0,93,0.13,,,0.27,WeatherCatV1.15B25,2013-05-28 08:50:00,
2013-05-28 04:55:00,51.8,49.8,30.02,SE,138,3.0,4.0,93,0.10,,,0.28,WeatherCatV1.15B25,2013-05-28 08:55:00,
2013-05-28 05:00:00,51.7,49.7,30.02,SE,141,0.0,2.0,93,0.09,,,0.28,WeatherCatV1.15B25,2013-05-28 09:00:00,
2013-05-28 05:05:00,51.7,49.7,30.01,SE,129,0.0,1.0,93,0.19,,,0.30,WeatherCatV1.15B25,2013-05-28 09:05:00,
2013-05-28 05:10:00,51.6,49.6,30.01,ESE,113,1.0,2.0,93,0.24,,,0.32,WeatherCatV1.15B25,2013-05-28 09:10:00,
2013-05-28 05:15:00,51.6,49.6,30.01,SE,141,1.0,2.0,93,0.15,,,0.33,WeatherCatV1.15B25,2013-05-28 09:15:00,
2013-05-28 05:20:00,51.6,49.6,30.01,SSE,157,3.0,3.0,93,0.12,,,0.34,WeatherCatV1.15B25,2013-05-28 09:20:00,
2013-05-28 05:25:00,51.7,50.0,30.01,SSE,155,2.0,2.0,94,0.08,,,0.34,WeatherCatV1.15B25,2013-05-28 09:25:00,
2013-05-28 05:30:00,51.9,50.2,30.01,SE,144,2.0,3.0,94,0.06,,,0.35,WeatherCatV1.15B25,2013-05-28 09:30:00,
2013-05-28 05:35:00,52.1,50.4,30.01,SSE,162,2.0,4.0,94,0.10,,,0.36,WeatherCatV1.15B25,2013-05-28 09:35:00,
2013-05-28 05:40:00,52.2,50.5,30.01,SSE,158,3.0,4.0,94,0.10,,,0.37,WeatherCatV1.15B25,2013-05-28 09:40:00,
2013-05-28 05:45:00,52.3,50.6,30.01,SSE,162,5.0,5.0,94,0.22,,,0.39,WeatherCatV1.15B25,2013-05-28 09:45:00,
2013-05-28 05:50:00,52.4,50.7,30.01,SE,136,2.0,3.0,94,0.16,,,0.40,WeatherCatV1.15B25,2013-05-28 09:50:00,
2013-05-28 05:55:00,52.4,50.7,30.01,SSE,148,2.0,4.0,94,0.13,,,0.41,WeatherCatV1.15B25,2013-05-28 09:55:00,
2013-05-28 06:00:00,52.5,50.8,30.00,SSE,160,3.0,4.0,94,0.12,,,0.42,WeatherCatV1.15B25,2013-05-28 10:00:00,
2013-05-28 06:05:00,52.4,50.4,30.00,SSE,158,4.0,4.0,93,0.17,,,0.44,WeatherCatV1.15B25,2013-05-28 10:05:00,
2013-05-28 06:10:00,52.4,50.4,30.00,SSE,162,3.0,5.0,93,0.15,,,0.45,WeatherCatV1.15B25,2013-05-28 10:10:00,
2013-05-28 06:15:00,52.4,50.7,30.00,SE,141,1.0,4.0,94,0.13,,,0.46,WeatherCatV1.15B25,2013-05-28 10:15:00,
2013-05-28 06:20:00,52.4,50.7,30.00,SE,143,1.0,1.0,94,0.12,,,0.47,WeatherCatV1.15B25,2013-05-28 10:20:00,
2013-05-28 06:25:00,52.7,51.0,30.00,SSE,158,2.0,5.0,94,0.11,,,0.48,WeatherCatV1.15B25,2013-05-28 10:25:00,
2013-05-28 06:30:00,53.0,51.3,29.99,SSE,167,3.0,5.0,94,0.09,,,0.49,WeatherCatV1.15B25,2013-05-28 10:30:00,
2013-05-28 06:35:00,53.3,51.6,30.00,SSE,159,4.0,5.0,94,0.11,,,0.50,WeatherCatV1.15B25,2013-05-28 10:35:00,
2013-05-28 06:40:00,53.6,51.9,29.99,SSE,148,5.0,8.0,94,0.16,,,0.52,WeatherCatV1.15B25,2013-05-28 10:40:00,
2013-05-28 06:45:00,53.8,52.1,30.00,SSE,162,5.0,8.0,94,0.12,,,0.52,WeatherCatV1.15B25,2013-05-28 10:45:00,
2013-05-28 06:50:00,53.9,52.2,30.00,South,174,3.0,8.0,94,0.09,,,0.53,WeatherCatV1.15B25,2013-05-28 10:50:00,
2013-05-28 06:55:00,54.1,52.4,30.00,SSE,166,4.0,4.0,94,0.21,,,0.55,WeatherCatV1.15B25,2013-05-28 10:55:00,
2013-05-28 07:00:00,54.1,52.4,30.00,SSE,155,4.0,6.0,94,0.17,,,0.56,WeatherCatV1.15B25,2013-05-28 11:00:00,
2013-05-28 07:05:00,54.2,52.5,30.00,SSE,164,3.0,4.0,94,0.13,,,0.57,WeatherCatV1.15B25,2013-05-28 11:05:00,
2013-05-28 07:10:00,54.3,52.6,30.00,SE,143,2.0,4.0,94,0.08,,,0.58,WeatherCatV1.15B25,2013-05-28 11:10:00,
2013-05-28 07:15:00,54.4,52.7,30.00,SSE,155,3.0,5.0,94,0.08,,,0.58,WeatherCatV1.15B25,2013-05-28 11:15:00,
2013-05-28 07:20:00,54.5,52.8,30.00,SSE,163,0.0,3.0,94,0.07,,,0.59,WeatherCatV1.15B25,2013-05-28 11:20:00,
2013-05-28 07:25:00,54.6,52.9,30.00,WSW,257,2.0,3.0,94,0.07,,,0.59,WeatherCatV1.15B25,2013-05-28 11:25:00,
2013-05-28 07:30:00,54.6,52.9,30.00,SSE,158,1.0,3.0,94,0.05,,,0.59,WeatherCatV1.15B25,2013-05-28 11:30:00,
2013-05-28 07:35:00,54.7,53.0,30.00,SSE,148,2.0,3.0,94,0.00,,,0.59,WeatherCatV1.15B25,2013-05-28 11:35:00,
2013-05-28 07:40:00,55.0,53.3,30.01,WSW,252,0.0,4.0,94,0.00,,,0.60,WeatherCatV1.15B25,2013-05-28 11:40:00,
2013-05-28 07:45:00,55.1,53.4,30.01,ENE,62,0.0,0.0,94,0.21,,,0.62,WeatherCatV1.15B25,2013-05-28 11:45:00,
2013-05-28 07:50:00,55.2,53.5,30.01,ESE,115,0.0,1.0,94,0.31,,,0.65,WeatherCatV1.15B25,2013-05-28 11:50:00,
2013-05-28 07:55:00,55.2,53.5,30.01,ESE,114,0.0,0.0,94,0.11,,,0.66,WeatherCatV1.15B25,2013-05-28 11:55:00,
2013-05-28 08:00:00,55.2,53.5,30.01,SSE,158,0.0,0.0,94,0.17,,,0.67,WeatherCatV1.15B25,2013-05-28 12:00:00,
2013-05-28 08:05:00,55.2,53.5,30.01,SSE,161,0.0,0.0,94,0.35,,,0.70,WeatherCatV1.15B25,2013-05-28 12:05:00,
2013-05-28 08:10:00,55.2,53.5,30.01,ESE,108,0.0,1.0,94,0.87,,,0.75,WeatherCatV1.15B25,2013-05-28 12:10:00,
2013-05-28 08:15:00,55.2,53.5,30.01,ENE,71,0.0,1.0,94,0.15,,,0.76,WeatherCatV1.15B25,2013-05-28 12:15:00,
2013-05-28 08:20:00,55.2,53.5,30.01,ESE,109,0.0,1.0,94,0.36,,,0.80,WeatherCatV1.15B25,2013-05-28 12:20:00,
2013-05-28 08:25:00,55.2,53.5,30.01,SSE,148,0.0,1.0,94,0.19,,,0.82,WeatherCatV1.15B25,2013-05-28 12:25:00,
2013-05-28 08:30:00,55.2,53.5,30.01,ESE,113,0.0,1.0,94,0.09,,,0.82,WeatherCatV1.15B25,2013-05-28 12:30:00,
2013-05-28 08:35:00,55.2,53.5,30.01,ESE,114,0.0,0.0,94,0.41,,,0.84,WeatherCatV1.15B25,2013-05-28 12:35:00,
2013-05-28 08:40:00,55.2,53.5,30.02,ESE,114,0.0,0.0,94,0.50,,,0.87,WeatherCatV1.15B25,2013-05-28 12:40:00,
2013-05-28 08:45:00,55.2,53.5,30.02,ESE,115,0.0,0.0,94,0.31,,,0.89,WeatherCatV1.15B25,2013-05-28 12:45:00,
2013-05-28 08:50:00,55.2,53.5,30.01,ESE,111,0.0,1.0,94,0.15,,,0.90,WeatherCatV1.15B25,2013-05-28 12:50:00,
2013-05-28 08:55:00,55.4,53.7,30.00,East,84,0.0,1.0,94,0.07,,,0.90,WeatherCatV1.15B25,2013-05-28 12:55:00,
2013-05-28 09:00:00,55.6,54.2,30.01,SSE,162,0.0,0.0,95,0.04,,,0.90,WeatherCatV1.15B25,2013-05-28 13:00:00,
2013-05-28 09:05:00,55.8,54.4,30.01,SSE,162,0.0,1.0,95,0.00,,,0.90,WeatherCatV1.15B25,2013-05-28 13:05:00,
2013-05-28 09:10:00,55.9,54.5,30.01,SE,141,0.0,1.0,95,0.00,,,0.90,WeatherCatV1.15B25,2013-05-28 13:10:00,
2013-05-28 09:15:00,56.1,54.7,30.01,SSE,152,0.0,1.0,95,0.00,,,0.90,WeatherCatV1.15B25,2013-05-28 13:15:00,
2013-05-28 09:20:00,56.4,55.0,30.00,SSE,151,0.0,0.0,95,0.00,,,0.90,WeatherCatV1.15B25,2013-05-28 13:20:00,
2013-05-28 09:25:00,56.8,55.4,30.00,East,92,0.0,0.0,95,0.00,,,0.90,WeatherCatV1.15B25,2013-05-28 13:25:00,
2013-05-28 09:30:00,57.4,56.0,30.00,SSE,158,0.0,3.0,95,0.00,,,0.90,WeatherCatV1.15B25,2013-05-28 13:30:00,
2013-05-28 09:35:00,58.0,56.6,30.00,SSE,152,1.0,2.0,95,0.00,,,0.90,WeatherCatV1.15B25,2013-05-28 13:35:00,
2013-05-28 09:40:00,58.2,56.8,30.00,SE,136,1.0,3.0,95,0.00,,,0.90,WeatherCatV1.15B25,2013-05-28 13:40:00,
2013-05-28 09:45:00,58.7,57.3,30.01,SSE,163,2.0,2.0,95,0.00,,,0.90,WeatherCatV1.15B25,2013-05-28 13:45:00,
2013-05-28 09:50:00,59.0,57.3,30.01,SSE,159,0.0,1.0,94,0.00,,,0.90,WeatherCatV1.15B25,2013-05-28 13:50:00,
2013-05-28 09:55:00,59.3,57.6,30.01,SSE,160,1.0,2.0,94,0.00,,,0.90,WeatherCatV1.15B25,2013-05-28 13:55:00,
2013-05-28 10:00:00,59.6,57.6,30.01,SSE,166,0.0,2.0,93,0.00,,,0.90,WeatherCatV1.15B25,2013-05-28 14:00:00,
2013-05-28 10:05:00,59.6,57.6,30.01,SSW,210,0.0,4.0,93,0.00,,,0.90,WeatherCatV1.15B25,2013-05-28 14:05:00,
2013-05-28 10:10:00,59.7,57.4,30.01,SW,225,0.0,2.0,92,0.00,,,0.90,WeatherCatV1.15B25,2013-05-28 14:10:00,
2013-05-28 10:15:00,59.7,57.4,30.01,SSW,210,1.0,1.0,92,0.00,,,0.90,WeatherCatV1.15B25,2013-05-28 14:15:00,
2013-05-28 10:20:00,59.7,57.4,30.02,ESE,123,0.0,0.0,92,0.00,,,0.90,WeatherCatV1.15B25,2013-05-28 14:20:00,
2013-05-28 10:25:00,59.7,57.4,30.02,ENE,57,0.0,3.0,92,0.00,,,0.90,WeatherCatV1.15B25,2013-05-28 14:25:00,
2013-05-28 10:30:00,59.9,57.6,30.02,ENE,60,0.0,1.0,92,0.00,,,0.90,WeatherCatV1.15B25,2013-05-28 14:30:00,
2013-05-28 10:35:00,60.4,58.1,30.01,SSW,203,1.0,3.0,92,0.00,,,0.90,WeatherCatV1.15B25,2013-05-28 14:35:00,
2013-05-28 10:40:00,60.7,58.4,30.01,East,85,1.0,4.0,92,0.00,,,0.90,WeatherCatV1.15B25,2013-05-28 14:40:00,
2013-05-28 10:45:00,61.6,59.2,30.01,SSW,205,0.0,0.0,92,0.00,,,0.90,WeatherCatV1.15B25,2013-05-28 14:45:00,
2013-05-28 10:50:00,62.5,59.8,30.01,NNW,336,1.0,2.0,91,0.00,,,0.90,WeatherCatV1.15B25,2013-05-28 14:50:00,
2013-05-28 10:55:00,62.9,59.9,30.01,South,169,4.0,4.0,90,0.00,,,0.90,WeatherCatV1.15B25,2013-05-28 14:55:00,
2013-05-28 11:00:00,63.2,59.6,30.00,SW,221,1.0,4.0,88,0.00,,,0.90,WeatherCatV1.15B25,2013-05-28 15:00:00,
2013-05-28 11:05:00,63.7,60.4,30.00,SSE,153,1.0,3.0,89,0.00,,,0.90,WeatherCatV1.15B25,2013-05-28 15:05:00,
2013-05-28 11:10:00,64.1,60.5,30.00,SSW,199,0.0,7.0,88,0.00,,,0.90,WeatherCatV1.15B25,2013-05-28 15:10:00,
2013-05-28 11:15:00,64.8,61.5,30.00,West,276,1.0,2.0,89,0.00,,,0.90,WeatherCatV1.15B25,2013-05-28 15:15:00,
2013-05-28 11:20:00,65.2,61.2,30.00,SSW,205,0.0,2.0,87,0.00,,,0.90,WeatherCatV1.15B25,2013-05-28 15:20:00,
2013-05-28 11:25:00,65.9,62.2,30.00,SSW,198,3.0,4.0,88,0.00,,,0.90,WeatherCatV1.15B25,2013-05-28 15:25:00,
2013-05-28 11:30:00,66.4,61.7,30.00,SSW,212,5.0,11.0,85,0.00,,,0.90,WeatherCatV1.15B25,2013-05-28 15:30:00,
2013-05-28 11:35:00,66.7,62.4,30.00,WNW,284,0.0,9.0,86,0.00,,,0.90,WeatherCatV1.15B25,2013-05-28 15:35:00,
2013-05-28 11:40:00,67.2,62.5,30.00,SW,224,2.0,6.0,85,0.00,,,0.90,WeatherCatV1.15B25,2013-05-28 15:40:00,
2013-05-28 11:45:00,67.7,62.7,29.99,SSW,203,6.0,13.0,84,0.00,,,0.90,WeatherCatV1.15B25,2013-05-28 15:45:00,
2013-05-28 11:50:00,67.5,62.1,30.00,WSW,249,1.0,10.0,83,0.00,,,0.90,WeatherCatV1.15B25,2013-05-28 15:50:00,
2013-05-28 11:55:00,67.5,62.5,30.00,SW,222,0.0,5.0,84,0.00,,,0.90,WeatherCatV1.15B25,2013-05-28 15:55:00,
2013-05-28 12:00:00,67.8,62.4,30.00,NW,323,2.0,8.0,83,0.00,,,0.90,WeatherCatV1.15B25,2013-05-28 16:00:00,
2013-05-28 12:05:00,67.9,62.9,30.00,WSW,245,0.0,6.0,84,0.00,,,0.90,WeatherCatV1.15B25,2013-05-28 16:05:00,
2013-05-28 12:10:00,68.1,63.1,30.00,NW,307,0.0,3.0,84,0.00,,,0.90,WeatherCatV1.15B25,2013-05-28 16:10:00,
2013-05-28 12:15:00,67.8,62.8,30.01,West,278,2.0,6.0,84,0.00,,,0.90,WeatherCatV1.15B25,2013-05-28 16:15:00,
2013-05-28 12:20:00,67.4,62.4,30.00,SW,231,3.0,8.0,84,0.00,,,0.90,WeatherCatV1.15B25,2013-05-28 16:20:00,
2013-05-28 12:25:00,67.3,62.6,30.00,NW,311,4.0,7.0,85,0.00,,,0.90,WeatherCatV1.15B25,2013-05-28 16:25:00,
2013-05-28 12:30:00,67.5,62.8,30.00,WSW,257,3.0,4.0,85,0.00,,,0.90,WeatherCatV1.15B25,2013-05-28 16:30:00,
2013-05-28 12:35:00,67.7,62.7,30.00,SW,219,2.0,9.0,84,0.00,,,0.90,WeatherCatV1.15B25,2013-05-28 16:35:00,
2013-05-28 12:40:00,67.7,63.0,30.01,SW,236,1.0,2.0,85,0.00,,,0.90,WeatherCatV1.15B25,2013-05-28 16:40:00,
2013-05-28 12:45:00,67.7,63.0,30.01,SSW,198,2.0,8.0,85,0.00,,,0.90,WeatherCatV1.15B25,2013-05-28 16:45:00,
2013-05-28 12:50:00,67.9,63.2,30.01,WNW,287,2.0,4.0,85,0.00,,,0.90,WeatherCatV1.15B25,2013-05-28 16:50:00,
2013-05-28 12:55:00,68.9,64.2,30.01,SW,224,3.0,4.0,85,0.00,,,0.90,WeatherCatV1.15B25,2013-05-28 16:55:00,
2013-05-28 13:00:00,69.9,64.1,30.00,South,169,4.0,9.0,82,0.00,,,0.90,WeatherCatV1.15B25,2013-05-28 17:00:00,
2013-05-28 13:05:00,70.5,64.0,30.00,SW,216,5.0,11.0,80,0.00,,,0.90,WeatherCatV1.15B25,2013-05-28 17:05:00,
2013-05-28 13:10:00,70.7,64.6,30.00,West,276,2.0,5.0,81,0.00,,,0.90,WeatherCatV1.15B25,2013-05-28 17:10:00,
2013-05-28 13:15:00,70.9,64.1,29.99,NW,314,3.0,3.0,79,0.00,,,0.90,WeatherCatV1.15B25,2013-05-28 17:15:00,
2013-05-28 13:20:00,71.0,64.1,29.99,SW,224,2.0,7.0,79,0.00,,,0.90,WeatherCatV1.15B25,2013-05-28 17:20:00,
2013-05-28 13:25:00,71.4,64.5,29.99,South,169,3.0,4.0,79,0.00,,,0.90,WeatherCatV1.15B25,2013-05-28 17:25:00,
2013-05-28 13:30:00,71.2,63.6,29.99,WSW,238,4.0,9.0,77,0.00,,,0.90,WeatherCatV1.15B25,2013-05-28 17:30:00,
2013-05-28 13:35:00,70.8,64.0,29.99,SW,234,3.0,8.0,79,0.00,,,0.90,WeatherCatV1.15B25,2013-05-28 17:35:00,
2013-05-28 13:40:00,70.7,64.2,29.99,SSW,212,0.0,4.0,80,0.00,,,0.90,WeatherCatV1.15B25,2013-05-28 17:40:00,
2013-05-28 13:45:00,70.7,64.2,29.98,SSW,206,3.0,4.0,80,0.00,,,0.90,WeatherCatV1.15B25,2013-05-28 17:45:00,
2013-05-28 13:50:00,70.8,64.0,29.99,SSW,209,0.0,2.0,79,0.00,,,0.90,WeatherCatV1.15B25,2013-05-28 17:50:00,
2013-05-28 13:55:00,71.2,64.7,29.99,SSE,159,3.0,7.0,80,0.00,,,0.90,WeatherCatV1.15B25,2013-05-28 17:55:00,
2013-05-28 14:00:00,71.2,64.0,29.98,WSW,252,3.0,5.0,78,0.00,,,0.90,WeatherCatV1.15B25,2013-05-28 18:00:00,
2013-05-28 14:05:00,71.6,65.1,29.98,SE,146,4.0,4.0,80,0.00,,,0.90,WeatherCatV1.15B25,2013-05-28 18:05:00,
2013-05-28 14:10:00,72.0,64.4,29.98,SSW,201,7.0,7.0,77,0.00,,,0.90,WeatherCatV1.15B25,2013-05-28 18:10:00,
2013-05-28 14:15:00,72.5,64.5,29.98,SE,146,2.0,4.0,76,0.00,,,0.90,WeatherCatV1.15B25,2013-05-28 18:15:00,
2013-05-28 14:20:00,72.8,64.8,29.98,SSE,162,1.0,3.0,76,0.00,,,0.90,WeatherCatV1.15B25,2013-05-28 18:20:00,
2013-05-28 14:25:00,73.2,64.8,29.98,SSE,158,2.0,6.0,75,0.00,,,0.90,WeatherCatV1.15B25,2013-05-28 18:25:00,
2013-05-28 14:30:00,74.0,66.3,29.98,South,179,3.0,5.0,77,0.00,,,0.90,WeatherCatV1.15B25,2013-05-28 18:30:00,
2013-05-28 14:35:00,74.5,65.7,29.97,South,169,1.0,4.0,74,0.00,,,0.90,WeatherCatV1.15B25,2013-05-28 18:35:00,
2013-05-28 14:40:00,75.2,66.7,29.97,WSW,252,2.0,3.0,75,0.00,,,0.90,WeatherCatV1.15B25,2013-05-28 18:40:00,
2013-05-28 14:45:00,75.7,66.0,29.97,SSW,201,2.0,6.0,72,0.00,,,0.90,WeatherCatV1.15B25,2013-05-28 18:45:00,
2013-05-28 14:50:00,75.9,65.8,29.97,SW,229,2.0,7.0,71,0.00,,,0.90,WeatherCatV1.15B25,2013-05-28 18:50:00,
2013-05-28 14:55:00,75.9,65.8,29.96,South,186,3.0,6.0,71,0.00,,,0.90,WeatherCatV1.15B25,2013-05-28 18:55:00,
2013-05-28 15:00:00,75.9,66.2,29.96,West,277,1.0,8.0,72,0.00,,,0.90,WeatherCatV1.15B25,2013-05-28 19:00:00,
2013-05-28 15:05:00,76.3,65.8,29.96,SSE,153,4.0,7.0,70,0.00,,,0.90,WeatherCatV1.15B25,2013-05-28 19:05:00,
2013-05-28 15:10:00,76.5,67.2,29.95,SSW,210,6.0,8.0,73,0.00,,,0.90,WeatherCatV1.15B25,2013-05-28 19:10:00,
2013-05-28 15:15:00,76.6,66.1,29.95,SW,219,3.0,4.0,70,0.00,,,0.90,WeatherCatV1.15B25,2013-05-28 19:15:00,
2013-05-28 15:20:00,77.2,66.6,29.95,ESE,115,2.0,5.0,70,0.00,,,0.90,WeatherCatV1.15B25,2013-05-28 19:20:00,
2013-05-28 15:25:00,77.8,68.0,29.95,SSE,165,2.0,5.0,72,0.00,,,0.90,WeatherCatV1.15B25,2013-05-28 19:25:00,
2013-05-28 15:30:00,77.2,67.0,29.95,SSE,155,3.0,6.0,71,0.00,,,0.90,WeatherCatV1.15B25,2013-05-28 19:30:00,
2013-05-28 15:35:00,76.7,66.6,29.95,SSE,166,3.0,6.0,71,0.00,,,0.90,WeatherCatV1.15B25,2013-05-28 19:35:00,
2013-05-28 15:40:00,76.6,67.3,29.95,South,169,4.0,7.0,73,0.00,,,0.90,WeatherCatV1.15B25,2013-05-28 19:40:00,
2013-05-28 15:45:00,77.1,67.8,29.95,SSW,203,2.0,4.0,73,0.00,,,0.90,WeatherCatV1.15B25,2013-05-28 19:45:00,
2013-05-28 15:50:00,77.9,66.9,29.94,WSW,246,3.0,6.0,69,0.00,,,0.90,WeatherCatV1.15B25,2013-05-28 19:50:00,
2013-05-28 15:55:00,78.0,66.1,29.94,SSW,204,3.0,8.0,67,0.00,,,0.90,WeatherCatV1.15B25,2013-05-28 19:55:00,
2013-05-28 16:00:00,78.4,66.5,29.94,South,181,5.0,8.0,67,0.00,,,0.90,WeatherCatV1.15B25,2013-05-28 20:00:00,
2013-05-28 16:05:00,77.8,66.8,29.94,SSE,152,7.0,9.0,69,0.00,,,0.90,WeatherCatV1.15B25,2013-05-28 20:05:00,
2013-05-28 16:10:00,76.7,66.2,29.94,SSE,166,3.0,7.0,70,0.00,,,0.90,WeatherCatV1.15B25,2013-05-28 20:10:00,
2013-05-28 16:15:00,75.9,65.8,29.95,SSW,205,5.0,8.0,71,0.00,,,0.90,WeatherCatV1.15B25,2013-05-28 20:15:00,
2013-05-28 16:20:00,75.5,65.8,29.94,SSW,205,6.0,9.0,72,0.00,,,0.90,WeatherCatV1.15B25,2013-05-28 20:20:00,
2013-05-28 16:25:00,75.3,65.6,29.95,South,169,5.0,8.0,72,0.00,,,0.90,WeatherCatV1.15B25,2013-05-28 20:25:00,
2013-05-28 16:30:00,75.1,65.8,29.95,South,170,4.0,9.0,73,0.00,,,0.90,WeatherCatV1.15B25,2013-05-28 20:30:00,
2013-05-28 16:35:00,75.0,65.7,29.95,SW,232,6.0,11.0,73,0.00,,,0.90,WeatherCatV1.15B25,2013-05-28 20:35:00,
2013-05-28 16:40:00,74.9,66.0,29.94,SSW,195,5.0,7.0,74,0.00,,,0.90,WeatherCatV1.15B25,2013-05-28 20:40:00,
2013-05-28 16:45:00,74.6,65.7,29.95,South,186,2.0,7.0,74,0.00,,,0.90,WeatherCatV1.15B25,2013-05-28 20:45:00,
2013-05-28 16:50:00,74.3,66.2,29.94,SSE,148,7.0,7.0,76,0.00,,,0.90,WeatherCatV1.15B25,2013-05-28 20:50:00,
2013-05-28 16:55:00,74.0,65.9,29.95,South,172,3.0,6.0,76,0.00,,,0.90,WeatherCatV1.15B25,2013-05-28 20:55:00,
2013-05-28 17:00:00,73.8,65.7,29.94,South,169,3.0,9.0,76,0.00,,,0.90,WeatherCatV1.15B25,2013-05-28 21:00:00,
2013-05-28 17:05:00,73.5,65.8,29.94,SSE,160,6.0,11.0,77,0.00,,,0.90,WeatherCatV1.15B25,2013-05-28 21:05:00,
2013-05-28 17:10:00,73.0,65.7,29.94,SSE,150,3.0,8.0,78,0.00,,,0.90,WeatherCatV1.15B25,2013-05-28 21:10:00,
2013-05-28 17:15:00,72.7,65.8,29.94,South,169,2.0,5.0,79,0.00,,,0.90,WeatherCatV1.15B25,2013-05-28 21:15:00,
2013-05-28 17:20:00,72.3,65.8,29.94,SSW,207,4.0,9.0,80,0.00,,,0.90,WeatherCatV1.15B25,2013-05-28 21:20:00,
2013-05-28 17:25:00,71.7,65.5,29.94,SSE,162,2.0,6.0,81,0.00,,,0.91,WeatherCatV1.15B25,2013-05-28 21:25:00,
2013-05-28 17:30:00,71.0,65.6,29.93,South,169,2.0,4.0,83,0.00,,,0.91,WeatherCatV1.15B25,2013-05-28 21:30:00,
2013-05-28 17:35:00,70.5,65.4,29.93,South,169,2.0,3.0,84,0.04,,,0.92,WeatherCatV1.15B25,2013-05-28 21:35:00,
2013-05-28 17:40:00,70.0,65.3,29.93,SSE,155,0.0,1.0,85,0.04,,,0.92,WeatherCatV1.15B25,2013-05-28 21:40:00,
2013-05-28 17:45:00,69.7,65.3,29.92,SSE,155,2.0,2.0,86,0.04,,,0.92,WeatherCatV1.15B25,2013-05-28 21:45:00,
2013-05-28 17:50:00,69.6,65.6,29.92,SSE,162,2.0,3.0,87,0.04,,,0.92,WeatherCatV1.15B25,2013-05-28 21:50:00,
2013-05-28 17:55:00,69.6,65.6,29.91,SSE,163,2.0,2.0,87,0.00,,,0.92,WeatherCatV1.15B25,2013-05-28 21:55:00,
2013-05-28 18:00:00,69.7,65.6,29.92,SSE,165,2.0,2.0,87,0.00,,,0.92,WeatherCatV1.15B25,2013-05-28 22:00:00,
2013-05-28 18:05:00,69.8,65.7,29.91,SSE,166,0.0,2.0,87,0.00,,,0.92,WeatherCatV1.15B25,2013-05-28 22:05:00,
2013-05-28 18:10:00,69.9,65.8,29.91,SSE,154,1.0,2.0,87,0.00,,,0.92,WeatherCatV1.15B25,2013-05-28 22:10:00,
2013-05-28 18:15:00,70.0,65.9,29.90,SSE,167,2.0,4.0,87,0.00,,,0.92,WeatherCatV1.15B25,2013-05-28 22:15:00,
2013-05-28 18:20:00,70.0,65.9,29.91,SSE,158,2.0,3.0,87,0.00,,,0.92,WeatherCatV1.15B25,2013-05-28 22:20:00,
2013-05-28 18:25:00,70.1,66.0,29.90,SSE,160,2.0,2.0,87,0.00,,,0.92,WeatherCatV1.15B25,2013-05-28 22:25:00,
2013-05-28 18:30:00,70.0,65.9,29.90,SSE,155,2.0,2.0,87,0.00,,,0.92,WeatherCatV1.15B25,2013-05-28 22:30:00,
2013-05-28 18:35:00,70.1,66.0,29.90,SSE,162,1.0,2.0,87,0.00,,,0.92,WeatherCatV1.15B25,2013-05-28 22:35:00,
2013-05-28 18:40:00,70.0,65.9,29.90,SSE,153,0.0,2.0,87,0.00,,,0.92,WeatherCatV1.15B25,2013-05-28 22:40:00,
2013-05-28 18:45:00,69.9,65.8,29.90,SSE,160,1.0,2.0,87,0.00,,,0.92,WeatherCatV1.15B25,2013-05-28 22:45:00,
2013-05-28 18:50:00,69.9,65.8,29.90,SSE,155,1.0,2.0,87,0.00,,,0.92,WeatherCatV1.15B25,2013-05-28 22:50:00,
2013-05-28 18:55:00,69.8,65.7,29.90,SSE,158,1.0,1.0,87,0.00,,,0.92,WeatherCatV1.15B25,2013-05-28 22:55:00,
2013-05-28 19:00:00,69.7,65.6,29.90,SSE,153,2.0,4.0,87,0.00,,,0.92,WeatherCatV1.15B25,2013-05-28 23:00:00,
2013-05-28 19:05:00,69.7,65.6,29.90,SSE,160,2.0,3.0,87,0.00,,,0.92,WeatherCatV1.15B25,2013-05-28 23:05:00,
2013-05-28 19:10:00,69.7,65.6,29.90,SSE,167,2.0,2.0,87,0.00,,,0.92,WeatherCatV1.15B25,2013-05-28 23:10:00,
2013-05-28 19:15:00,69.6,65.6,29.90,SSE,158,1.0,2.0,87,0.00,,,0.92,WeatherCatV1.15B25,2013-05-28 23:15:00,
2013-05-28 19:20:00,69.5,65.5,29.90,SSE,158,2.0,2.0,87,0.00,,,0.92,WeatherCatV1.15B25,2013-05-28 23:20:00,
2013-05-28 19:25:00,69.5,65.8,29.90,SSE,156,2.0,3.0,88,0.00,,,0.92,WeatherCatV1.15B25,2013-05-28 23:25:00,
2013-05-28 19:30:00,69.4,65.7,29.90,SSE,156,2.0,3.0,88,0.00,,,0.92,WeatherCatV1.15B25,2013-05-28 23:30:00,
2013-05-28 19:35:00,69.3,65.6,29.90,SSE,156,1.0,2.0,88,0.00,,,0.92,WeatherCatV1.15B25,2013-05-28 23:35:00,
2013-05-28 19:40:00,69.2,65.5,29.89,SSE,160,3.0,3.0,88,0.00,,,0.92,WeatherCatV1.15B25,2013-05-28 23:40:00,
2013-05-28 19:45:00,69.1,65.7,29.88,SSE,153,2.0,2.0,89,0.00,,,0.93,WeatherCatV1.15B25,2013-05-28 23:45:00,
2013-05-28 19:50:00,68.9,65.5,29.88,SSE,150,1.0,2.0,89,0.00,,,0.93,WeatherCatV1.15B25,2013-05-28 23:50:00,
2013-05-28 19:55:00,68.7,65.6,29.88,South,174,3.0,3.0,90,0.00,,,0.93,WeatherCatV1.15B25,2013-05-28 23:55:00,
2013-05-28 20:00:00,68.7,65.6,29.88,SSE,160,4.0,4.0,90,0.00,,,0.93,WeatherCatV1.15B25,2013-05-29 00:00:00,
2013-05-28 20:05:00,68.8,65.7,29.88,SSE,156,3.0,4.0,90,0.00,,,0.93,WeatherCatV1.15B25,2013-05-29 00:05:00,
2013-05-28 20:10:00,68.9,65.8,29.88,SSE,162,3.0,5.0,90,0.00,,,0.93,WeatherCatV1.15B25,2013-05-29 00:10:00,
2013-05-28 20:15:00,69.0,65.6,29.88,SSW,197,3.0,4.0,89,0.00,,,0.93,WeatherCatV1.15B25,2013-05-29 00:15:00,
2013-05-28 20:23:00,69.4,66.0,29.89,SW,225,0.0,3.0,89,0.00,,,0.93,WeatherCatV1.15B25,2013-05-29 00:23:00,
2013-05-28 20:29:00,69.6,65.9,29.89,SW,225,0.0,3.0,88,0.00,,,0.93,WeatherCatV1.15B25,2013-05-29 00:29:00,
2013-05-28 20:34:00,69.7,66.0,29.89,SSW,204,0.0,0.0,88,0.00,,,0.93,WeatherCatV1.15B25,2013-05-29 00:34:00,
2013-05-28 20:39:00,69.7,66.0,29.89,SSW,206,0.0,0.0,88,0.00,,,0.93,WeatherCatV1.15B25,2013-05-29 00:39:00,
2013-05-28 20:44:00,69.7,66.0,29.90,SW,222,0.0,1.0,88,0.00,,,0.94,WeatherCatV1.15B25,2013-05-29 00:44:00,
2013-05-28 20:49:00,69.5,66.1,29.91,WSW,257,1.0,4.0,89,0.87,,,0.99,WeatherCatV1.15B25,2013-05-29 00:49:00,
2013-05-28 20:54:00,69.4,66.0,29.90,SE,141,0.0,2.0,89,0.22,,,1.01,WeatherCatV1.15B25,2013-05-29 00:54:00,
2013-05-28 20:59:00,69.2,66.1,29.91,SSW,210,0.0,1.0,90,0.09,,,1.02,WeatherCatV1.15B25,2013-05-29 00:59:00,
2013-05-28 21:04:00,69.0,65.9,29.91,SSE,165,0.0,4.0,90,0.09,,,1.02,WeatherCatV1.15B25,2013-05-29 01:04:00,
2013-05-28 21:09:00,68.9,65.8,29.90,South,187,2.0,2.0,90,0.06,,,1.02,WeatherCatV1.15B25,2013-05-29 01:09:00,
2013-05-28 21:14:00,68.8,65.7,29.90,SSW,201,2.0,4.0,90,0.04,,,1.02,WeatherCatV1.15B25,2013-05-29 01:14:00,
2013-05-28 21:19:00,68.7,65.6,29.90,SSE,160,2.0,3.0,90,0.00,,,1.02,WeatherCatV1.15B25,2013-05-29 01:19:00,
2013-05-28 21:24:00,68.6,65.5,29.90,SW,222,0.0,0.0,90,0.00,,,1.02,WeatherCatV1.15B25,2013-05-29 01:24:00,
2013-05-28 21:29:00,68.4,65.3,29.92,North,350,4.0,5.0,90,0.00,,,1.02,WeatherCatV1.15B25,2013-05-29 01:29:00,
2013-05-28 21:34:00,68.2,65.1,29.92,NW,321,3.0,6.0,90,0.00,,,1.02,WeatherCatV1.15B25,2013-05-29 01:34:00,
2013-05-28 21:39:00,67.8,64.8,29.93,NNE,30,0.0,0.0,90,0.00,,,1.02,WeatherCatV1.15B25,2013-05-29 01:39:00,
2013-05-28 21:44:00,67.5,64.5,29.91,ENE,67,5.0,6.0,90,0.00,,,1.02,WeatherCatV1.15B25,2013-05-29 01:44:00,
2013-05-28 21:49:00,67.4,64.4,29.91,SSW,192,2.0,9.0,90,0.00,,,1.03,WeatherCatV1.15B25,2013-05-29 01:49:00,
2013-05-28 21:54:00,67.2,64.2,29.92,SSW,211,4.0,5.0,90,0.00,,,1.03,WeatherCatV1.15B25,2013-05-29 01:54:00,
2013-05-28 21:59:00,67.0,64.3,29.94,WNW,295,0.0,1.0,91,0.35,,,1.05,WeatherCatV1.15B25,2013-05-29 01:59:00,
2013-05-28 22:04:00,66.8,64.1,29.94,NNW,343,1.0,2.0,91,0.32,,,1.11,WeatherCatV1.15B25,2013-05-29 02:04:00,
2013-05-28 22:09:00,66.6,64.2,29.96,West,277,3.0,6.0,92,4.92,,,1.34,WeatherCatV1.15B25,2013-05-29 02:09:00,
2013-05-28 22:14:00,66.5,64.1,29.95,South,177,1.0,3.0,92,2.04,,,1.56,WeatherCatV1.15B25,2013-05-29 02:14:00,
2013-05-28 22:19:00,66.4,64.3,29.95,SW,214,3.0,4.0,93,1.82,,,1.67,WeatherCatV1.15B25,2013-05-29 02:19:00,
2013-05-28 22:24:00,66.4,64.3,29.96,WSW,238,0.0,0.0,93,0.26,,,1.72,WeatherCatV1.15B25,2013-05-29 02:24:00,
2013-05-28 22:29:00,66.4,64.3,29.95,SSW,205,2.0,2.0,93,0.73,,,1.77,WeatherCatV1.15B25,2013-05-29 02:29:00,
2013-05-28 22:34:00,66.4,64.3,29.95,West,274,0.0,2.0,93,0.19,,,1.79,WeatherCatV1.15B25,2013-05-29 02:34:00,
2013-05-28 22:39:00,66.1,63.7,29.95,SSE,162,0.0,2.0,92,0.23,,,1.82,WeatherCatV1.15B25,2013-05-29 02:39:00,
2013-05-28 22:44:00,65.9,63.5,29.95,SW,231,0.0,0.0,92,0.15,,,1.83,WeatherCatV1.15B25,2013-05-29 02:44:00,
2013-05-28 22:49:00,65.8,63.4,29.94,SSW,208,0.0,0.0,92,0.12,,,1.84,WeatherCatV1.15B25,2013-05-29 02:49:00,
2013-05-28 22:54:00,65.8,63.4,29.95,SSW,208,0.0,0.0,92,0.11,,,1.85,WeatherCatV1.15B25,2013-05-29 02:54:00,
2013-05-28 22:59:00,65.6,63.2,29.94,SSW,208,0.0,0.0,92,0.12,,,1.86,WeatherCatV1.15B25,2013-05-29 02:59:00,
2013-05-28 23:04:00,65.5,63.4,29.94,SSW,205,0.0,0.0,93,0.11,,,1.86,WeatherCatV1.15B25,2013-05-29 03:04:00,
2013-05-28 23:09:00,65.6,63.5,29.94,ENE,78,0.0,1.0,93,0.06,,,1.86,WeatherCatV1.15B25,2013-05-29 03:09:00,
2013-05-28 23:14:00,65.5,63.4,29.94,ENE,78,0.0,1.0,93,0.04,,,1.86,WeatherCatV1.15B25,2013-05-29 03:14:00,
2013-05-28 23:19:00,65.5,63.4,29.94,SE,127,0.0,0.0,93,0.00,,,1.86,WeatherCatV1.15B25,2013-05-29 03:19:00,
2013-05-28 23:24:00,65.6,63.8,29.95,ENE,57,0.0,0.0,94,0.00,,,1.86,WeatherCatV1.15B25,2013-05-29 03:24:00,
2013-05-28 23:29:00,65.6,63.8,29.95,ESE,109,1.0,2.0,94,0.00,,,1.86,WeatherCatV1.15B25,2013-05-29 03:29:00,
2013-05-28 23:34:00,65.6,63.8,29.95,ENE,68,0.0,2.0,94,0.00,,,1.86,WeatherCatV1.15B25,2013-05-29 03:34:00,
2013-05-28 23:39:00,65.6,63.8,29.94,SSE,162,0.0,1.0,94,0.00,,,1.86,WeatherCatV1.15B25,2013-05-29 03:39:00,
2013-05-28 23:44:00,65.5,63.7,29.95,SE,139,0.0,1.0,94,0.00,,,1.86,WeatherCatV1.15B25,2013-05-29 03:44:00,
2013-05-28 23:49:00,65.5,63.7,29.94,SE,134,0.0,1.0,94,0.00,,,1.86,WeatherCatV1.15B25,2013-05-29 03:49:00,
2013-05-28 23:54:00,65.5,63.7,29.94,SSW,206,0.0,2.0,94,0.00,,,1.86,WeatherCatV1.15B25,2013-05-29 03:54:00,
2013-05-28 23:59:00,65.5,63.7,29.94,SSE,160,2.0,3.0,94,0.00,,,1.86,WeatherCatV1.15B25,2013-05-29 03:59:00,